Retour au catalogue

THAICOM 6

ActifCommunicationsGEO
NORAD 39500·PAYLOAD·🇹🇭 Thailand

Lancé Jan 6, 2014 depuis Cape Canaveral Space Force Station

Loading…

TLE

FraisSource: Space-Track

Époque: Sep 14, 2026, 21:01 UTC

1 39500U 14002A   26257.87580720 -.00000129  00000-0  00000-0 0  9996
2 39500   0.0589 110.1432 0003711  42.8794 234.6396  1.00272245 46353

Suivez THAICOM 6 en temps réel avec AllMySat

Download on the App Store